Weather History for Gwinn, MI

Change the Weather History Date:

Saturday, November 16, 2013

  Actual Average (KESC) Record (KESC)
Temperature  
Mean Temperature 40 °F -  
Max Temperature 50 °F 41 °F 69 °F (1953)
Min Temperature 32 °F 29 °F 3 °F (1959)
Degree Days  
Heating Degree Days 24    
Moisture  
Dew Point 38 °F    
Average Humidity 94    
Maximum Humidity 100    
Minimum Humidity 87    
Precipitation  
Precipitation 0.10 in - - ()
Sea Level Pressure  
Sea Level Pressure 29.66 in    
Wind  
Wind Speed 11 mph (South)    
Max Wind Speed 22 mph    
Max Gust Speed 32 mph    
Visibility 4 miles    
Events Rain , Thunderstorm    
Averages and records for this station are not official NWS values.
T = Trace of Precipitation, MM = Missing Value Source: NWS Daily Summary

Daily Weather History Graph

Daily Weather History Graph

Search for Another Location

Airport:

Trip Planner

Search our weather history database for the weather conditions in past years. The results will help you decide how hot, cold, wet, or windy it might be!

Date:

Astronomy

Nov. 16, 2013 Rise Set
Actual Time 7:52 AM EST 5:15 PM EST
Civil Twilight 7:19 AM EST 5:48 PM EST
Nautical Twilight 6:43 AM EST 6:24 PM EST
Astronomical Twilight 6:07 AM EST 7:00 PM EST
Moon 4:52 PM EST (11/16) 6:45 AM EST (11/16)
Length of Visible Light 10h 28m
Length of Day
9h 22m
Waxing Gibbous, 99% of the Moon is Illuminated
Nov 16
Waxing Gibbous
Nov 17
Full
Nov 25
Last Quarter
Dec 2
New
Dec 9
First Quarter

Hourly Weather History & Observations

Time (EST) Temp. Windchill Dew Point Humidity Pressure Visibility Wind Dir Wind Speed Gust Speed Precip Events Conditions
12:16 AM 33.4 °F 28.1 °F 32.0 °F 94% 29.83 in 5.0 mi South 5.8 mph - N/A   Clear
12:37 AM 32.9 °F 27.5 °F 32.0 °F 96% 29.82 in 4.0 mi South 5.8 mph - N/A   Clear
12:57 AM 32.4 °F 26.0 °F 31.8 °F 98% 29.82 in 3.0 mi South 6.9 mph - N/A   Clear
1:16 AM 32.0 °F 26.4 °F 31.5 °F 98% 29.82 in 3.0 mi South 5.8 mph - N/A   Clear
1:37 AM 32.4 °F 24.6 °F 31.8 °F 98% 29.81 in 3.0 mi South 9.2 mph - N/A   Clear
1:56 AM 32.4 °F 26.0 °F 32.0 °F 99% 29.80 in 2.5 mi South 6.9 mph - N/A   Clear
2:16 AM 33.3 °F 25.7 °F 32.4 °F 96% 29.80 in 3.0 mi South 9.2 mph - N/A   Clear
2:37 AM 34.0 °F 26.0 °F 32.9 °F 96% 29.79 in 4.0 mi South 10.4 mph - N/A   Clear
2:56 AM 34.9 °F 27.1 °F 33.8 °F 96% 29.79 in 4.0 mi South 10.4 mph - N/A   Clear
3:16 AM 34.9 °F 27.1 °F 33.3 °F 94% 29.79 in 5.0 mi South 10.4 mph - N/A   Clear
3:37 AM 35.1 °F 25.9 °F 33.1 °F 92% 29.79 in 5.0 mi South 13.8 mph - N/A   Clear
3:56 AM 34.9 °F 26.2 °F 32.9 °F 92% 29.79 in 5.0 mi South 12.7 mph - N/A   Clear
4:17 AM 34.7 °F 26.9 °F 32.7 °F 92% 29.78 in 5.0 mi South 10.4 mph - N/A   Clear
4:36 AM 34.3 °F 25.0 °F 32.4 °F 92% 29.79 in 5.0 mi South 13.8 mph - N/A   Clear
4:56 AM 34.2 °F 25.7 °F 32.2 °F 92% 29.79 in 5.0 mi South 11.5 mph - N/A   Clear
5:17 AM 33.8 °F 25.3 °F 32.0 °F 93% 29.79 in 5.0 mi South 11.5 mph - N/A   Clear
5:36 AM 33.8 °F 25.3 °F 32.0 °F 93% 29.78 in 5.0 mi South 11.5 mph - N/A   Clear
5:56 AM 34.0 °F 25.5 °F 32.0 °F 92% 29.77 in 5.0 mi South 11.5 mph - N/A   Clear
6:55 AM 35.6 °F 27.1 °F 32.0 °F 87% 29.76 in 7.0 mi South 12.7 mph - N/A   Overcast
7:55 AM 35.6 °F 26.6 °F 33.8 °F 93% 29.75 in 7.0 mi South 13.8 mph - N/A   Mostly Cloudy
8:55 AM 37.4 °F 28.9 °F 35.6 °F 93% 29.74 in 5.0 mi South 13.8 mph - N/A   Mostly Cloudy
9:55 AM 41.0 °F 33.1 °F 37.4 °F 87% 29.72 in 4.0 mi South 15.0 mph 23.0 mph N/A   Overcast
10:50 AM 41.0 °F 32.2 °F 37.4 °F 87% 29.71 in 5.0 mi South 18.4 mph 24.2 mph N/A   Overcast
11:55 AM 41.0 °F 32.2 °F 39.2 °F 93% 29.68 in 4.0 mi South 18.4 mph 27.6 mph N/A   Overcast
12:16 PM 41.0 °F 32.8 °F 39.2 °F 93% 29.67 in 2.5 mi South 16.1 mph 21.9 mph N/A   Overcast
12:45 PM 41.0 °F 31.4 °F 41.0 °F 100% 29.66 in 1.8 mi South 21.9 mph 27.6 mph N/A   Overcast
1:50 PM 42.8 °F 34.8 °F 39.2 °F 87% 29.63 in 2.5 mi South 17.3 mph 29.9 mph N/A   Overcast
2:50 PM 42.8 °F 34.5 °F 41.0 °F 93% 29.59 in 1.2 mi South 18.4 mph 25.3 mph N/A   Overcast
3:29 PM 42.8 °F 35.1 °F 42.8 °F 100% 29.56 in 1.8 mi South 16.1 mph 24.2 mph N/A Rain , Thunderstorm Thunderstorms and Rain
3:55 PM 44.6 °F 37.2 °F 42.8 °F 93% 29.58 in 2.5 mi South 17.3 mph 25.3 mph N/A Rain , Thunderstorm Light Thunderstorms and Rain
4:55 PM 44.6 °F 38.8 °F 42.8 °F 93% 29.55 in 3.0 mi South 11.5 mph - N/A Rain Light Rain
5:50 PM 44.6 °F 37.2 °F 42.8 °F 93% 29.50 in 4.0 mi SSE 17.3 mph 20.7 mph N/A Rain Rain
6:50 PM 46.4 °F 39.0 °F 44.6 °F 93% 29.47 in 3.0 mi SSE 19.6 mph 25.3 mph N/A Rain Light Rain
7:50 PM 46.4 °F 39.2 °F 44.6 °F 93% 29.41 in 7.0 mi South 18.4 mph 26.5 mph N/A Rain Light Rain
8:50 PM 48.2 °F - 46.4 °F 93% 29.40 in 2.5 mi South 21.9 mph 32.2 mph N/A Rain Rain
10:16 PM 49.1 °F - 47.3 °F 93% 29.37 in 5.0 mi SSW 20.7 mph 29.9 mph N/A Rain Light Rain
10:36 PM 49.1 °F - 47.3 °F 93% 29.36 in 5.0 mi South 19.6 mph 25.3 mph 0.02 in Rain Rain
10:57 PM 48.9 °F - 47.3 °F 94% 29.35 in 10.0 mi South 17.3 mph 23.0 mph 0.03 in Rain Light Rain
11:16 PM 48.9 °F - 47.5 °F 95% 29.36 in 7.0 mi South 17.3 mph 20.7 mph N/A Rain Light Rain
11:36 PM 49.1 °F - 47.5 °F 94% 29.36 in 5.0 mi South 15.0 mph 20.7 mph 0.01 in Rain Rain
11:56 PM 49.1 °F - 47.8 °F 95% 29.37 in 4.0 mi South 18.4 mph - 0.07 in Rain Rain